sat.trackr.live / text

‹ back to catalog

STARLINK-37219

NORAD 68843 · 2026-094E

PAYLOAD ACTIVE UNKNOWN

§ Identity

Operator
Country
US
Launch date
2026-04-26
Launch site
AFWTR
Launch vehicle
Mass (kg)
RCS (m²)

Purposes: comms

External: N2YO · Heavens-Above · Gunter

§ Orbital elements

Epoch: 2026-09-20T00:34:31.224000Z

Period
93.90 min
Inclination
97.2832°
Eccentricity
0.0001733
Mean motion
15.33469994 rev/d
Perigee alt
464.3 km
Apogee alt
466.7 km
Semi-major
6,843.6 km
B*
5.2542e-4
RAAN
279.1941°
Arg perigee
95.5911°
Mean anomaly
264.5530°
Rev number
2,278

§ Raw data

STARLINK-372191 68843U 26094E   26263.02397250  .00016939  00000+0  52542-3 0  99952 68843  97.2832 279.1941 0001733  95.5911 264.5530 15.33469994 22786

JSON: /api/v1/satellites/68843 · /tle

For live sub-satellite position, see the globe view (requires WebGL).

§ Visibility from observer

Set your observer location to see the next 7 days of passes ≥ 10°. The values pass through the URL so the page stays shareable.

No JS? Fill the form by hand. The geolocation button needs JavaScript.